GFSNGP_925_thetae_057.txt.gz
Theta_e
306 306 307 307 307 307 305 304 306 306 305 305 303 302 303 303 301 301 301 300 300 298 298 297 296 297 296 295 295 295 295 294 294 294 294 293 292 292 292 292 292 292 293 293
307 308 307 309 307 307 306 305 303 304 304 303 304 303 303 302 302 303 302 300 299 298 298 296 296 296 295 295 295 294 294 293 293 292 292 291 291 292 292 292 293 293 293 293
309 305 307 307 308 308 308 305 306 306 305 305 305 304 303 303 301 301 300 299 298 298 297 296 296 295 295 294 294 293 293 293 291 291 291 291 291 291 292 293 293 293 294 294
303 304 306 303 305 305 307 307 305 306 306 305 305 303 302 300 300 300 299 299 297 298 297 297 296 295 294 294 293 293 292 291 292 291 291 291 291 292 293 293 293 294 294 294
303 303 303 306 305 305 306 307 305 306 305 305 304 302 302 302 301 300 299 299 299 297 297 295 295 294 293 293 292 291 291 291 291 291 291 291 291 292 293 293 294 294 294 295
302 300 302 302 305 303 302 304 305 305 305 303 302 300 299 300 299 300 301 300 298 297 296 295 294 293 292 292 291 291 291 291 291 291 291 291 292 293 293 293 294 295 295 295
301 300 303 303 305 303 306 303 305 304 303 303 302 300 299 299 300 300 300 299 297 295 295 294 293 292 292 291 291 291 291 290 291 291 291 292 293 293 294 294 294 294 295 295
299 301 304 304 302 306 302 302 303 302 302 301 300 300 300 299 298 298 298 297 296 295 294 294 292 292 291 290 290 291 290 291 291 291 292 292 293 294 294 294 294 295 295 297
302 303 302 302 303 301 300 300 301 301 300 299 299 299 298 298 297 297 297 296 295 294 293 293 292 291 291 290 291 290 290 291 291 292 292 293 293 294 294 294 295 296 298 297
304 304 303 300 301 301 301 301 300 299 299 298 298 297 297 296 296 296 296 295 294 293 292 292 292 291 291 290 290 290 290 291 291 292 293 292 293 294 294 294 295 298 297 298
302 302 301 301 300 300 300 300 299 298 298 298 297 297 296 296 296 296 295 294 294 293 292 292 292 291 290 290 290 290 291 291 292 292 292 293 293 294 294 295 297 297 297 298
304 301 300 299 299 299 299 300 299 298 297 297 297 296 296 295 296 295 295 294 293 293 292 292 291 290 290 290 290 290 290 291 291 292 292 293 293 293 293 295 296 296 296 297
302 298 298 297 299 300 300 300 299 299 297 296 297 297 296 296 296 296 296 293 293 292 292 292 290 290 290 290 290 290 291 291 291 291 293 293 293 293 294 294 294 294 295 296
297 297 299 299 300 300 299 300 299 299 298 298 297 297 296 296 296 295 294 293 293 292 292 291 290 290 290 290 289 291 291 291 291 292 292 292 293 293 294 294 294 294 294 295
297 299 297 298 299 299 299 299 298 297 297 297 298 296 296 295 294 295 294 293 292 292 292 291 290 290 290 289 289 290 291 290 291 292 292 292 293 293 293 293 293 293 294 294
297 298 298 298 298 298 297 297 297 296 296 297 296 297 296 296 295 294 294 293 292 291 292 290 290 290 290 289 289 291 290 290 291 292 292 292 292 293 293 292 293 293 293 293
297 298 297 297 296 296 295 295 295 295 296 296 297 298 296 295 294 293 293 292 292 292 291 291 290 290 290 289 290 292 289 290 291 290 291 292 292 292 292 292 293 293 293 293
297 298 296 295 295 295 295 295 296 296 296 297 297 297 295 294 293 293 293 293 292 291 292 291 291 291 289 289 291 291 289 290 290 290 291 291 292 292 292 292 292 292 292 291
298 298 298 296 297 295 295 295 296 297 297 297 297 296 296 295 295 294 293 292 291 291 291 291 291 289 288 290 291 290 289 290 290 290 291 291 291 291 292 291 292 292 292 291
298 298 298 297 297 296 296 297 297 296 297 296 296 296 295 296 295 293 292 291 292 291 291 291 290 288 290 290 291 289 289 289 290 289 290 291 291 291 291 292 292 292 291 290
295 296 295 295 296 297 297 297 296 295 297 297 296 296 295 296 295 293 292 291 292 291 291 291 290 289 290 290 289 290 289 289 290 289 290 290 290 290 291 291 292 292 291 291
295 295 296 296 295 295 297 297 296 296 297 297 297 296 295 295 295 293 292 292 292 291 291 291 289 290 291 290 288 289 288 289 289 289 290 289 290 290 290 290 291 291 291 291
296 295 296 296 295 296 296 297 297 296 296 297 297 297 295 296 294 292 290 293 292 291 291 290 290 290 290 288 288 289 288 288 289 289 289 289 289 289 289 290 291 291 291 291
296 296 296 297 297 296 294 297 296 297 296 297 297 297 296 296 295 293 293 292 292 291 291 290 290 289 289 287 288 289 288 288 289 289 289 288 288 288 288 289 290 291 290 291
296 296 296 296 295 295 295 296 296 298 297 297 298 298 297 296 294 294 293 292 292 291 291 290 289 288 287 287 287 288 288 288 288 288 289 289 288 288 287 288 289 290 289 289
296 296 296 296 295 296 296 296 296 295 295 296 296 297 297 296 294 293 292 292 291 291 290 289 288 287 287 287 287 287 287 287 287 288 288 288 288 288 287 288 288 288 288 288
296 296 296 296 296 297 296 295 295 294 294 294 295 296 297 295 294 293 292 292 291 290 290 288 287 287 287 286 287 287 287 287 286 286 287 288 288 288 287 287 287 288 288 287

GFSNGP_925_thetae_060.txt.gz
Theta_e
305 305 306 307 307 304 304 303 305 305 303 304 303 303 303 302 301 302 301 300 299 298 298 298 297 296 296 296 295 294 294 293 293 293 291 291 291 291 291 291 291 292 292 293
307 307 306 308 307 305 305 305 302 303 303 303 303 302 302 301 301 302 301 300 299 298 298 298 297 296 296 295 294 294 293 293 292 291 292 291 291 291 291 291 291 292 293 293
309 304 305 308 306 307 307 304 305 305 304 303 305 304 303 302 301 299 299 298 298 297 298 298 296 296 295 294 293 293 292 291 291 291 291 290 290 290 290 291 292 293 293 294
304 303 305 304 303 305 305 306 305 305 305 305 304 303 301 300 301 299 298 298 297 298 298 296 295 295 294 293 292 292 291 291 291 290 290 290 290 290 291 292 293 293 294 294
302 302 302 304 305 306 307 307 304 304 305 304 303 300 300 301 301 298 297 298 299 298 296 295 294 294 293 292 292 291 290 291 290 290 290 290 290 291 292 293 293 294 294 295
302 299 301 300 304 302 303 304 304 304 304 303 301 299 298 299 298 298 299 299 298 297 295 294 294 293 292 291 291 290 290 290 290 290 290 290 291 291 292 293 294 294 295 295
302 299 302 301 303 302 306 303 303 302 302 302 301 299 299 298 298 299 299 298 297 295 294 294 293 292 292 291 290 290 290 290 290 290 290 291 292 292 293 293 294 294 295 295
299 301 304 301 303 305 302 302 301 301 301 301 299 298 298 297 297 297 296 297 295 294 294 294 293 292 291 290 290 290 290 289 290 291 291 292 292 293 293 294 294 294 295 296
301 302 300 301 302 300 299 299 300 300 299 299 298 298 297 296 295 296 296 295 294 294 294 293 292 292 290 290 290 290 289 290 290 291 291 292 293 293 293 294 294 295 296 297
303 303 302 300 300 300 300 299 299 299 299 298 297 296 296 295 295 295 296 295 294 294 293 292 292 292 290 290 290 289 289 290 290 291 292 292 292 293 293 294 294 295 296 296
301 301 300 300 300 299 299 299 299 298 298 298 296 296 295 294 294 296 296 295 294 293 292 292 292 291 290 290 290 289 289 289 290 290 291 292 293 293 293 293 295 296 296 297
303 300 300 299 298 298 298 299 298 298 298 297 296 295 296 294 296 296 295 295 294 293 292 292 292 291 290 290 290 289 289 290 290 290 291 292 292 293 293 293 294 294 296 296
302 298 298 297 297 298 298 298 299 298 297 296 297 296 296 295 296 296 297 295 293 292 292 292 291 290 290 290 289 289 289 290 291 290 291 292 292 293 293 293 293 293 294 295
297 297 299 298 299 298 299 300 300 299 298 298 297 297 296 295 295 295 294 295 293 292 292 292 291 290 290 290 289 289 290 291 290 291 292 292 292 292 293 293 293 293 293 294
296 297 297 297 297 298 299 298 298 296 296 297 297 297 296 295 295 295 295 294 293 292 292 292 291 290 290 290 289 289 290 290 290 291 291 291 292 292 293 292 292 293 293 292
296 297 296 297 297 297 297 296 295 295 295 295 296 296 297 296 296 295 295 293 292 292 292 291 291 290 290 289 289 290 290 290 290 291 291 291 292 292 292 292 292 293 292 291
296 298 297 297 296 296 294 294 294 294 295 295 296 296 296 296 295 295 295 294 292 292 291 291 291 290 291 288 289 290 290 289 290 290 290 291 291 292 292 292 292 292 293 291
296 296 295 295 294 293 294 295 295 295 294 296 296 295 295 295 294 294 295 294 292 292 291 291 291 291 290 289 290 290 289 289 289 290 290 291 291 291 291 291 292 292 291 290
297 296 297 297 297 295 294 295 295 296 296 296 295 295 295 295 295 295 294 293 291 291 292 291 291 290 289 289 291 290 289 289 289 290 290 290 291 290 291 291 292 291 291 290
297 298 298 297 296 295 295 296 295 295 296 295 295 295 295 296 296 295 294 292 292 292 291 291 291 290 289 290 290 289 288 288 289 289 290 290 290 290 290 291 291 292 291 291
295 295 295 295 295 296 296 296 295 295 296 296 295 295 295 296 295 294 292 290 293 292 291 291 290 289 290 290 289 288 288 288 288 289 289 289 289 289 290 290 291 291 291 291
295 295 296 296 295 295 297 297 296 295 296 295 296 296 295 295 295 294 294 292 293 291 291 291 290 290 291 290 287 288 288 288 288 289 289 288 289 289 289 289 290 290 290 290
295 295 295 295 295 295 296 296 296 295 295 295 295 296 296 296 295 293 291 294 293 291 291 291 290 290 290 288 287 288 288 288 288 289 289 288 288 288 288 289 289 289 289 288
295 295 295 296 295 295 294 296 296 295 296 296 296 296 295 295 296 296 294 292 292 291 291 291 290 290 288 287 287 287 288 288 288 288 288 289 289 288 287 288 289 288 289 287
294 295 295 294 294 295 295 295 296 296 295 294 295 295 295 296 294 295 293 293 292 292 291 290 289 288 287 287 287 287 287 287 288 287 288 288 288 288 287 287 288 288 287 287
295 295 295 295 295 296 296 296 295 294 294 293 293 294 295 295 295 294 292 292 291 291 291 290 288 287 287 286 286 286 287 287 286 286 286 287 287 288 287 287 286 287 287 287
295 295 295 295 296 296 296 294 294 294 293 293 293 294 295 295 295 293 291 291 291 290 290 289 287 287 286 286 286 286 286 286 286 286 286 286 287 287 288 288 287 287 286 287

GFSNGP_925_thetae_063.txt.gz
Theta_e
304 304 306 307 307 304 305 304 309 308 305 305 304 304 304 303 302 303 304 303 302 302 301 300 299 296 295 295 295 294 294 293 292 292 291 291 290 290 291 291 291 292 292 292
306 306 306 308 308 306 305 304 303 303 305 302 303 303 304 303 303 303 302 301 301 301 300 300 298 296 295 295 294 294 293 292 291 291 290 290 290 290 291 291 292 292 292 293
312 304 306 310 307 307 307 305 305 308 306 304 304 304 305 304 302 302 301 301 301 300 299 298 295 295 295 294 293 293 292 291 290 290 290 290 290 290 291 292 292 292 293 294
310 305 310 306 303 305 306 305 304 304 304 305 304 304 302 301 302 302 301 300 300 299 299 296 295 294 294 293 292 292 291 290 290 290 289 290 290 291 291 292 293 293 293 294
309 306 304 303 304 306 307 307 305 305 305 304 303 301 301 301 300 300 300 299 298 298 296 294 294 294 293 293 292 291 290 290 290 289 289 290 290 291 292 292 293 293 294 295
304 304 305 301 303 302 303 308 304 304 304 303 302 304 303 300 299 299 298 298 297 296 295 294 294 293 292 291 291 290 289 289 289 289 290 290 290 291 292 292 293 293 294 295
306 305 305 301 302 302 307 307 304 302 302 302 303 302 300 299 299 298 297 297 297 294 294 293 293 292 291 291 290 290 290 289 289 289 290 290 291 292 293 293 293 294 294 295
302 305 306 302 302 307 305 301 301 301 301 301 300 300 299 298 298 297 297 296 295 294 294 294 293 292 291 290 290 290 290 289 289 289 290 290 291 292 292 293 293 294 294 295
304 305 300 301 302 300 300 301 300 300 300 299 299 298 298 298 297 296 296 296 295 294 294 294 293 292 290 291 290 290 289 289 289 289 291 291 291 292 292 293 293 294 294 296
304 301 300 301 300 299 299 300 299 299 299 298 298 297 297 297 296 296 296 296 295 294 293 293 293 292 292 290 290 290 289 288 289 290 291 291 291 292 292 293 293 294 295 296
302 301 300 300 299 299 299 298 298 298 298 298 297 297 296 296 296 295 295 296 295 294 293 293 292 292 292 290 290 289 288 288 289 290 290 290 291 292 292 293 294 295 295 295
305 301 301 301 299 298 299 299 298 298 298 297 297 297 296 296 296 295 295 296 295 294 293 293 292 292 291 290 290 289 288 289 290 291 290 291 292 292 292 293 294 294 294 295
303 299 298 297 298 297 298 298 298 298 297 298 297 296 296 295 296 297 296 295 294 294 293 292 292 291 291 290 290 289 288 289 290 290 290 291 291 292 292 292 293 292 293 294
297 297 299 298 299 297 298 299 300 299 298 297 297 297 296 295 296 296 296 295 294 293 292 292 291 291 291 290 290 288 289 290 290 290 291 291 291 291 292 293 293 293 292 292
296 297 297 297 297 297 298 298 298 297 296 296 296 296 296 295 295 296 296 295 294 293 292 292 291 291 290 290 289 288 289 289 290 290 291 291 291 291 292 292 292 293 292 291
295 296 296 297 297 297 296 296 296 296 295 295 295 295 295 295 295 296 296 295 293 292 293 292 291 291 290 290 288 289 289 290 290 290 290 290 291 291 292 292 292 292 291 291
296 297 297 297 297 296 295 295 294 294 294 294 295 295 295 295 294 295 296 295 294 293 292 292 291 291 290 290 288 290 289 289 290 289 290 290 291 291 291 291 292 291 291 291
296 297 296 296 296 295 294 294 295 294 294 295 294 294 294 294 293 294 295 295 294 293 292 292 291 291 291 289 290 290 289 288 289 289 289 290 290 290 291 291 291 291 291 291
296 296 296 296 295 295 295 295 295 295 295 295 294 294 294 295 294 295 294 294 293 291 293 292 291 291 290 289 290 290 288 288 288 289 289 290 289 289 290 290 291 291 291 291
296 297 298 297 297 295 294 295 295 294 296 295 294 294 294 295 295 294 294 293 294 293 292 291 291 290 289 290 290 288 288 288 289 289 289 289 289 289 289 290 290 291 290 291
296 296 295 295 295 295 295 296 295 295 296 295 294 294 294 295 295 294 293 292 295 293 292 291 291 290 290 290 289 287 288 288 288 289 289 288 288 288 289 289 290 289 290 289
294 294 295 295 295 295 297 297 296 295 295 295 295 294 294 294 295 295 295 294 294 292 291 291 290 290 291 290 287 287 288 288 288 289 288 289 288 288 288 288 289 288 289 288
294 295 295 295 294 295 296 296 295 295 294 295 294 294 294 294 294 293 293 295 293 292 291 291 290 291 290 287 287 287 288 288 288 288 288 288 288 288 287 287 288 288 288 288
294 294 294 295 295 294 293 296 295 295 294 294 293 293 293 293 294 295 295 294 293 291 292 291 291 290 288 286 287 287 287 287 287 287 287 287 287 288 287 287 287 287 288 287
294 294 294 294 293 294 294 295 295 295 294 293 293 293 293 294 293 295 294 293 292 292 292 291 289 288 287 286 286 286 287 286 287 286 286 287 287 287 288 287 286 287 286 287
294 294 294 294 294 295 295 294 294 294 293 293 293 292 293 294 295 294 293 292 291 292 291 290 288 287 286 286 286 286 286 286 286 286 286 286 286 286 287 287 287 286 286 286
294 294 294 294 295 295 295 294 294 293 293 293 292 292 293 294 295 294 292 291 291 291 290 289 287 286 286 285 285 285 286 285 285 285 285 286 286 286 286 286 286 286 286 286

GFSNGP_925_thetae_069.txt.gz
Theta_e
311 311 312 313 313 313 313 315 316 316 314 314 313 313 312 311 310 310 309 309 308 307 306 304 304 304 303 303 302 301 300 300 300 299 297 296 296 295 295 294 294 295 295 296
313 312 312 313 313 313 313 313 313 313 314 314 314 311 311 310 310 310 310 308 306 305 304 303 303 303 302 302 301 300 300 300 299 297 296 295 295 294 294 294 294 295 295 295
319 315 315 318 317 317 316 314 314 314 314 312 311 310 310 310 310 309 308 306 304 304 303 302 302 301 301 301 300 300 299 298 296 296 295 295 294 294 294 294 294 295 295 294
322 317 319 313 311 312 314 313 313 313 312 311 311 311 310 310 309 308 305 304 303 302 302 302 301 301 300 300 300 299 297 296 296 295 294 294 294 293 294 294 295 294 294 294
322 319 315 311 309 311 311 311 312 312 311 311 310 310 310 308 306 304 303 302 302 302 301 301 301 300 299 299 299 297 297 296 295 294 294 294 293 293 293 294 293 293 294 294
315 328 320 311 309 309 310 311 311 311 312 311 310 311 309 306 304 303 302 301 301 301 301 300 300 300 299 298 297 297 297 295 294 294 294 293 293 293 294 293 293 293 293 294
316 318 314 310 309 310 310 314 311 311 311 311 311 309 306 303 302 301 301 301 301 301 300 300 300 299 298 298 297 297 296 294 294 294 293 293 293 293 293 292 292 293 294 294
314 316 318 310 309 311 313 310 311 310 310 309 308 304 303 302 302 301 301 301 300 301 300 300 300 299 298 298 297 296 295 294 294 294 293 292 293 293 293 292 294 294 294 294
314 316 311 310 311 310 310 311 310 309 308 307 305 303 302 302 301 301 301 300 300 300 300 300 300 299 298 298 296 295 294 294 294 293 292 293 293 292 293 294 293 294 294 294
312 311 310 309 309 308 308 309 308 308 306 304 303 302 301 301 301 301 301 300 300 300 300 300 299 299 298 297 296 295 294 294 293 293 292 292 292 292 293 293 293 293 294 295
310 311 310 309 309 309 307 307 306 305 303 302 302 301 301 301 301 301 301 301 300 300 300 300 299 299 298 296 295 294 294 294 293 292 292 292 291 292 293 292 293 294 295 294
310 310 311 310 309 308 307 306 305 303 302 302 301 301 301 302 301 301 301 301 300 300 300 300 299 298 297 296 295 294 294 294 293 292 291 291 292 292 292 292 293 293 294 294
310 308 308 307 307 307 306 305 303 302 302 302 301 301 301 301 301 301 301 300 300 300 300 299 299 298 297 296 295 294 294 293 292 292 291 292 292 292 292 292 292 292 293 294
307 307 307 306 307 306 305 303 301 301 301 301 301 301 301 301 301 300 300 300 300 299 299 299 298 297 297 295 294 293 293 292 292 291 291 292 292 292 291 292 292 292 293 293
307 306 306 306 305 304 303 302 302 302 302 301 301 301 301 300 300 300 300 300 299 299 299 299 298 297 296 294 293 294 293 292 291 291 291 291 292 291 291 291 291 292 292 292
306 305 305 305 305 304 303 302 302 301 301 301 301 301 300 299 299 300 300 300 299 299 299 298 298 297 295 294 294 293 292 291 291 290 290 291 291 291 291 290 291 291 291 291
305 304 304 305 304 304 303 302 301 301 301 301 300 300 299 299 299 300 300 299 299 299 298 298 297 296 294 293 293 292 291 291 290 289 290 291 291 290 290 290 290 291 291 291
305 305 304 304 304 303 302 301 300 300 301 300 299 299 299 299 299 299 299 299 299 299 298 298 296 294 294 294 292 292 291 291 290 289 290 290 291 290 289 289 290 290 290 290
303 303 303 303 303 302 302 301 301 300 299 299 299 299 299 299 299 299 298 299 299 299 298 297 294 293 293 292 291 292 291 290 289 289 290 290 289 290 289 289 289 289 290 290
303 302 302 301 301 302 302 300 299 299 299 299 299 299 299 298 298 298 298 299 299 299 296 295 293 293 293 292 292 290 290 289 289 289 290 289 289 289 289 289 289 289 289 289
303 302 302 302 300 299 299 299 299 299 299 299 298 298 298 298 299 298 298 298 299 297 294 293 293 293 293 292 291 290 290 289 289 289 290 288 288 288 289 289 289 289 289 289
302 301 300 300 300 300 299 299 299 299 299 298 298 297 296 296 295 295 296 297 298 295 293 293 293 292 292 291 290 289 289 289 289 289 289 288 288 288 288 288 288 289 289 288
300 300 300 299 299 299 299 299 299 298 298 297 296 295 295 294 294 294 295 295 295 294 292 293 291 292 290 290 289 289 289 289 288 288 288 288 288 288 288 288 288 288 288 288
299 299 299 298 298 298 299 299 298 298 297 296 296 295 295 294 293 294 294 294 295 293 293 292 292 291 289 289 289 289 288 288 288 287 287 288 287 287 287 287 287 287 288 288
299 298 298 299 299 300 299 298 298 298 297 297 296 295 294 294 293 293 294 293 293 293 293 291 290 289 289 289 288 288 288 288 287 287 287 287 287 287 288 287 287 287 287 288
298 299 299 298 299 299 299 298 299 298 297 295 295 294 294 293 294 294 294 292 293 292 292 291 290 289 288 288 287 287 287 287 286 286 287 287 287 287 287 287 287 287 287 287
298 298 298 298 298 298 298 297 297 296 295 294 294 294 293 293 294 293 292 291 291 291 291 290 289 288 287 287 287 287 286 286 286 286 287 287 287 287 287 287 287 287 287 287

GFSNGP_925_thetae_075.txt.gz
Theta_e
309 310 310 311 312 312 311 310 311 312 311 309 307 307 306 306 305 305 306 304 302 300 300 301 301 302 301 301 301 301 300 300 299 298 297 296 296 295 295 294 294 293 293 293
311 311 311 312 312 311 311 311 311 311 312 310 307 305 306 306 306 305 304 303 301 300 300 300 301 301 301 300 300 300 299 299 298 297 296 296 295 294 294 294 293 293 293 293
316 315 315 314 314 313 312 312 311 312 310 308 308 307 306 305 305 304 302 301 300 299 300 301 301 301 300 300 299 299 299 298 297 296 296 295 294 294 294 293 293 293 293 293
315 315 317 313 310 310 312 313 311 311 310 309 308 306 304 304 302 301 300 299 298 299 300 300 300 300 300 299 299 299 298 297 296 296 295 295 294 294 294 293 292 292 293 292
316 316 314 310 309 309 310 311 310 310 309 308 308 305 303 301 300 299 298 299 300 300 300 300 300 300 299 299 299 298 297 297 296 296 295 294 294 294 293 292 293 293 292 292
312 313 311 310 308 309 306 303 310 309 308 308 306 305 303 301 299 298 300 300 300 300 300 300 300 300 299 299 298 298 297 296 296 295 295 294 294 293 292 292 292 292 292 293
311 310 311 310 307 308 301 302 309 308 307 306 306 303 301 299 299 300 300 300 300 300 300 300 300 299 299 299 298 298 297 296 296 295 294 294 293 292 292 291 291 291 292 293
309 311 311 306 307 304 304 309 308 308 307 305 302 301 300 299 299 299 300 300 300 300 300 300 300 299 299 299 299 298 297 296 295 295 294 294 292 292 291 291 291 292 292 292
308 309 307 305 307 308 307 307 308 306 304 303 301 300 300 298 298 299 300 300 300 300 300 300 300 300 299 299 298 298 296 295 295 294 294 293 292 291 290 291 291 292 292 292
306 307 307 306 307 306 307 307 306 304 303 301 300 299 299 298 298 299 300 300 300 300 299 299 300 299 299 298 298 296 296 295 294 294 294 292 291 290 291 291 293 292 293 293
304 304 308 306 304 305 305 304 304 302 301 300 299 298 298 298 298 299 300 300 300 300 299 299 299 299 299 298 297 296 295 295 294 293 293 291 291 290 291 292 293 292 293 293
304 303 305 305 304 304 304 303 302 301 299 299 299 298 299 298 299 300 300 300 300 299 299 299 299 299 299 298 297 296 295 294 293 293 291 291 290 290 291 292 291 292 292 292
304 305 304 304 304 303 303 302 300 299 299 298 299 300 300 299 300 301 300 299 299 299 299 299 299 298 298 297 296 295 294 293 293 291 291 290 289 290 291 291 290 290 291 291
302 302 304 305 304 302 302 302 302 300 300 300 300 300 300 300 300 299 299 299 299 299 299 299 299 298 298 297 295 294 294 293 292 291 291 290 290 290 291 290 290 289 289 290
302 302 302 301 301 301 301 299 298 298 298 299 300 300 300 298 298 298 299 299 299 299 299 299 298 298 297 296 295 293 293 292 292 291 290 289 289 290 290 289 290 289 289 289
301 301 300 301 300 299 298 297 297 298 297 298 299 299 298 298 298 299 299 299 298 298 298 298 298 297 296 294 294 293 292 292 292 290 289 289 289 290 289 289 289 289 289 289
301 301 300 300 299 298 298 297 297 297 298 298 298 298 298 298 298 298 298 298 298 298 298 297 296 295 293 294 293 292 291 290 290 289 289 289 290 289 289 288 289 289 289 289
300 300 299 299 299 298 298 297 298 298 297 298 298 298 298 297 297 297 298 298 298 298 297 296 295 294 293 293 292 291 290 290 289 288 288 289 290 288 288 288 288 288 289 288
301 300 299 300 300 298 296 297 298 298 299 299 298 298 298 298 297 296 296 297 296 297 295 295 293 293 293 293 293 291 289 289 288 288 288 290 288 288 288 288 288 288 288 288
299 300 300 299 299 299 297 298 299 299 299 298 298 297 297 295 295 294 294 294 295 295 294 294 293 293 292 292 291 289 289 289 288 288 288 288 288 288 287 288 288 288 288 288
298 299 299 299 298 298 299 299 299 298 298 298 297 296 295 294 294 293 293 294 295 294 295 293 293 292 292 291 289 289 289 288 287 287 288 287 288 287 287 288 288 288 288 288
298 298 297 297 297 297 298 299 298 298 298 297 296 295 294 294 294 293 293 294 293 294 293 293 292 293 291 289 289 288 288 287 287 287 287 287 287 287 287 287 288 287 287 288
298 297 297 297 297 297 298 298 298 298 297 296 295 295 295 294 294 292 293 294 294 294 293 293 293 291 290 288 288 287 287 287 286 286 287 287 287 287 287 287 287 287 287 287
297 297 297 298 297 297 296 297 298 298 297 296 296 295 294 293 293 294 294 294 293 293 292 292 291 290 288 287 287 287 286 286 286 286 286 287 287 287 287 287 287 287 287 287
297 297 297 297 297 296 297 298 298 297 296 295 294 294 293 293 293 293 293 293 293 292 291 290 289 288 287 287 286 286 285 285 286 286 286 286 287 287 288 287 287 287 286 286
296 296 297 298 298 298 298 298 297 296 295 294 293 292 293 292 292 292 292 292 291 290 290 289 288 286 286 286 285 285 284 284 285 285 286 286 286 287 287 287 287 286 286 286
297 298 298 298 298 298 298 297 295 293 292 292 292 291 292 292 292 292 291 291 291 290 289 288 287 287 285 285 285 284 283 284 284 285 286 286 286 286 287 287 287 286 286 286